Location: Bu�n Treun
(12.1333°N, 108.3167°E)
Time: 00:08:00
(UTC+00:00)

Cosmos 1486 Rocket - Pass Details

Date: 13 July 2020
Orbit: 759 x 782 km, 74.1° (Epoch: 03 August)

Event Time Altitude Azimuth Distance (km) Brightness Sun altitude
Exits shadow 20:46:23 60° 227° (SW) 888 3.9 -23.5°
Maximum altitude 20:47:14 72° 283° (WNW) 815 3.9 -23.3°
Drops below altitude 10° 20:52:28 10° 7° (N) 2,314 6.9 -22.2°
Sets 20:54:51 0° 10° (N) 3,238 7.8 -21.7°
